Flag for Switzerland Weather past 2 weeks in Köniz, Bern, Switzerland

32 °F

Light snow. Partly cloudy.

Feels Like: 32 °F
Forecast: 31 / 37 °F
Wind: 2 mph from North

Location: Bern / Belp

Current Time: Nov 25, 2015 at 8:23:38 AM

Latest Report: Nov 25, 2015 at 7:20 AM

Visibility: 1 mi

Pressure: 29.89 "Hg (27.80 "Hg at 579m altitude)

Humidity: 100%

Dew point: 32 °F

Location of KönizLocation

Historic Weather in Köniz — Graph


Köniz temperature yesterday

Maximum temperature yesterday: 37 °F (at 1:20 PM)
Minimum temperature yesterday: 19 °F (at 4:50 AM)
Average temperature yesterday: 29 °F

Past Weeks' High & Low Weather Summary

High64 °F (Nov 10, 2:20 PM)100% (Nov 10, 6:20 AM)30.48 "Hg (Nov 10, 6:20 AM)
Low19 °F (Nov 24, 4:50 AM)51% (Nov 19, 5:20 PM)29.45 "Hg (Nov 21, 12:50 PM)
Average44 °F87%30.15 "Hg
* Reported Nov 10 6:20 AM — Nov 25 6:50 AM, Köniz, Weather by CustomWeather, © 2015

Note: Actual official high and low records may vary slightly from our data, if they occured in-between our weather recording intervals... More about our weather records


Köniz weather history for previous 24 hours

Time TempWeatherWind HumidityBarometerVisibility
6:50 AM
Wed, Nov 25
32 °FSnow. Partly cloudy.No wind100%29.89 "Hg1 mi
5:50 AM32 °FLight snow. Overcast.3 mph100%29.89 "Hg2 mi
5:20 AM32 °FLight snow. Mostly cloudy.3 mph100%29.89 "Hg2 mi
4:20 AM32 °FSnow. Passing clouds.5 mph100%29.89 "Hg1 mi
3:50 AM32 °FSnow. Low clouds.5 mph100%29.92 "Hg1 mi
3:20 AM32 °FSnow. Dense fog.3 mph100%29.92 "Hg1 mi
2:50 AM32 °FLight snow. Partly cloudy.5 mph100%29.92 "Hg1 mi
2:20 AM32 °FSnow. Dense fog.3 mph100%29.95 "Hg1 mi
1:20 AM34 °FPassing clouds.2 mph87%29.95 "HgN/A
12:50 AM34 °FPassing clouds.2 mph87%29.98 "HgN/A
12:20 AM32 °FPassing clouds.1 mph93%29.98 "HgN/A
11:50 PM
Tue, Nov 24
32 °FPassing clouds.2 mph93%29.98 "HgN/A
11:20 PM32 °FPassing clouds.3 mph93%30.01 "HgN/A
10:50 PM32 °FPassing clouds.2 mph93%30.01 "HgN/A
10:20 PM32 °FPassing clouds.6 mph87%30.04 "HgN/A
9:50 PM32 °FPassing clouds.3 mph87%30.04 "HgN/A
9:20 PM32 °FPassing clouds.5 mph80%30.04 "HgN/A
8:50 PM32 °FPassing clouds.5 mph87%30.07 "HgN/A
8:20 PM32 °FPassing clouds.5 mph87%30.07 "HgN/A
7:50 PM32 °FPassing clouds.5 mph87%30.09 "HgN/A
7:20 PM32 °FClear.6 mph87%30.09 "Hg10 mi
6:50 PM32 °FPassing clouds.5 mph80%30.09 "HgN/A
6:20 PM32 °FPassing clouds.5 mph80%30.09 "HgN/A
5:50 PM32 °FPassing clouds.2 mph80%30.12 "HgN/A
5:20 PM34 °FPassing clouds.2 mph75%30.12 "HgN/A
4:50 PM34 °FPassing clouds.1 mph81%30.12 "HgN/A
4:20 PM36 °FPassing clouds.1 mph70%30.12 "HgN/A
3:50 PM36 °FSunny.2 mph65%30.15 "Hg10 mi
3:20 PM36 °FSunny.1 mph65%30.15 "Hg10 mi
2:50 PM36 °FSunny.1 mph60%30.15 "Hg10 mi
2:20 PM37 °FSunny.1 mph60%30.15 "Hg10 mi
1:50 PM36 °FSunny.1 mph65%30.18 "Hg10 mi
1:20 PM37 °FSunny.1 mph65%30.18 "Hg10 mi
12:50 PM36 °FPassing clouds.1 mph65%30.18 "HgN/A
12:20 PM34 °FPassing clouds.1 mph70%30.21 "HgN/A
11:50 AM32 °FPassing clouds.2 mph75%30.21 "HgN/A
11:20 AM34 °FPassing clouds.3 mph70%30.21 "HgN/A
10:50 AM30 °FSunny.3 mph86%30.24 "Hg10 mi
10:20 AM27 °FSunny.3 mph93%30.24 "Hg10 mi
9:50 AM25 °FSunny.6 mph93%30.24 "Hg10 mi
9:20 AM25 °FSunny.5 mph93%30.24 "Hg10 mi
8:50 AM21 °FSunny.6 mph100%30.24 "Hg10 mi
Weather by CustomWeather, © 2015

See weather overviewHow to use our weather pages